Portada
METAR-TAF:

METAR-TAF

Aeroports :

Orlando Executive Airport

Orlando, Florida, Estats Units d'Amèrica

latitud: 28-32-47N, longitud: 081-20-09W, altitud: 34 m

Observació

L'informe es va fer fa 52 minuts, a les 20:53 UTC
Vent 7 kt del Est/Sud-Est
Temperatura 24°C
Humitat 74%
Pressió 1018 hPa
Visibilitat: 16.1 km
Cel ennuvolat a una alçada de 4500 ft
Cel ennuvolat a una alçada de 6000 ft

METAR: KORL 142053Z 11007KT 10SM BKN045 BKN060 24/19 A3005 RMK AO2 SLP179 T02440194 56012

Hora: 16:45 (21:45 UTC)


TAF: manca

Observacions i pronòstics meteorològics de més de 4000 aeroports (METAR i TAF).

Les estacions disponibles són els punts grocs i vermells al mapa.

Posi el ratolí al punt desitjat per veure el nom de l'estació.

Feu clic per veure les observacions i els pronòstics meteorològics.

Per canviar el mapa: feu clic els botons verds amb una creu de color negre per apropar; al botó verd amb un guió per allunyar la imatge; o en les fletxes verdes per a mapes adjacents.


METAR-TAF: